Location: Balaclava NSW 2575, Australia
(34.4510°S, 150.4953°E)
Time: 15:40:53
(UTC+10:00)

Envisat - Pass Details

Date: 16 May 2021
Orbit: 764 x 766 km, 98.1° (Epoch: 18 June)

Event Time Altitude Azimuth Distance (km) Brightness Sun altitude
Rises 18:19:33 0° 182° (S) 3,265 6.2 -15.7°
Reaches altitude 10° 18:22:12 10° 195° (SSW) 2,331 5.5 -16.3°
Maximum altitude 18:26:21 25° 249° (WSW) 1,510 5.2 -17.1°
Drops below altitude 10° 18:30:29 10° 303° (WNW) 2,308 6.5 -17.9°
Sets 18:33:07 0° 316° (NW) 3,226 7.2 -18.5°
